Temp
-14 -15 -15 -15 -14 -14 -14 -14 -14 -14 -14 -14 -14 -14 -14 -14 -14 -14 -13 -13 -13 -13 -14 -14 -13 -13 -13 -13 -13 -13 -13 -12 -12 -12 -13 -13 -12 -12 -12 -11 -12 -12
-15 -15 -15 -15 -15 -15 -15 -15 -15 -14 -14 -14 -14 -14 -14 -15 -14 -14 -14 -14 -14 -14 -14 -14 -14 -14 -14 -14 -14 -14 -13 -13 -12 -12 -13 -13 -12 -12 -12 -12 -12 -12
-15 -15 -15 -15 -15 -15 -15 -15 -15 -15 -15 -15 -15 -15 -15 -15 -15 -15 -15 -15 -14 -14 -14 -14 -14 -14 -14 -14 -14 -14 -14 -13 -13 -12 -12 -13 -13 -12 -12 -12 -12 -12
-15 -15 -15 -15 -15 -15 -15 -15 -15 -15 -15 -15 -15 -15 -15 -15 -15 -15 -15 -15 -15 -15 -15 -14 -14 -14 -15 -15 -14 -14 -14 -14 -14 -13 -12 -12 -13 -12 -12 -12 -12 -12
-16 -16 -16 -15 -15 -15 -15 -15 -16 -16 -16 -16 -16 -16 -16 -15 -16 -16 -16 -16 -16 -16 -15 -15 -15 -14 -15 -15 -15 -15 -14 -15 -15 -14 -13 -12 -12 -13 -12 -12 -12 -12
-16 -16 -16 -16 -16 -16 -16 -16 -16 -16 -16 -16 -16 -16 -16 -16 -16 -16 -16 -16 -16 -16 -16 -16 -15 -15 -15 -15 -15 -15 -15 -15 -15 -15 -14 -13 -13 -13 -12 -12 -12 -12
-17 -16 -16 -16 -16 -16 -16 -16 -16 -16 -16 -16 -16 -16 -16 -16 -16 -16 -16 -16 -16 -16 -16 -16 -16 -16 -15 -15 -15 -15 -15 -15 -15 -15 -15 -14 -14 -13 -13 -12 -12 -12
-17 -17 -17 -17 -17 -16 -16 -16 -16 -16 -16 -16 -16 -16 -16 -16 -16 -17 -17 -16 -16 -16 -16 -16 -16 -16 -16 -16 -15 -15 -15 -15 -15 -15 -15 -15 -15 -14 -13 -13 -12 -12
-17 -17 -17 -17 -17 -17 -17 -17 -16 -16 -16 -16 -16 -16 -16 -16 -16 -17 -17 -17 -17 -17 -17 -17 -17 -16 -16 -16 -16 -16 -15 -15 -15 -15 -15 -15 -15 -15 -14 -13 -13 -12
-18 -18 -17 -17 -17 -17 -17 -17 -17 -17 -17 -16 -16 -16 -16 -16 -16 -16 -16 -17 -17 -17 -17 -17 -17 -16 -16 -16 -16 -16 -16 -15 -15 -15 -15 -15 -15 -15 -15 -14 -14 -13
-18 -18 -18 -17 -17 -17 -17 -17 -17 -17 -17 -17 -16 -16 -16 -16 -16 -16 -16 -16 -17 -17 -17 -17 -17 -17 -16 -16 -16 -16 -16 -16 -15 -15 -15 -15 -15 -15 -15 -15 -14 -14
-18 -18 -18 -18 -18 -18 -17 -17 -17 -17 -17 -17 -17 -17 -16 -16 -16 -16 -16 -16 -16 -16 -17 -17 -17 -16 -16 -16 -16 -16 -16 -16 -15 -15 -15 -15 -15 -15 -15 -15 -15 -14
-18 -18 -18 -18 -18 -18 -18 -18 -18 -17 -17 -17 -17 -17 -17 -16 -16 -16 -16 -16 -16 -16 -16 -16 -17 -16 -16 -16 -16 -16 -16 -16 -16 -15 -15 -15 -15 -15 -15 -15 -15 -15
-19 -19 -19 -19 -18 -18 -18 -18 -18 -18 -18 -18 -17 -17 -17 -17 -17 -16 -16 -16 -16 -16 -16 -16 -16 -16 -16 -16 -16 -16 -16 -16 -16 -15 -15 -15 -15 -15 -15 -15 -15 -15
-19 -19 -19 -19 -19 -19 -18 -18 -18 -18 -18 -18 -18 -18 -17 -17 -17 -17 -17 -16 -16 -16 -16 -16 -16 -16 -16 -16 -16 -16 -16 -16 -16 -16 -15 -15 -15 -15 -15 -15 -14 -14
-19 -19 -19 -19 -19 -19 -19 -18 -18 -18 -18 -18 -18 -18 -18 -18 -17 -17 -17 -17 -17 -17 -17 -17 -17 -17 -17 -16 -16 -16 -16 -16 -16 -16 -15 -15 -15 -15 -14 -14 -14 -14
-20 -20 -19 -19 -19 -19 -19 -19 -19 -19 -19 -19 -18 -18 -18 -18 -18 -18 -18 -17 -17 -17 -17 -17 -17 -17 -17 -16 -16 -16 -16 -16 -16 -16 -16 -15 -15 -15 -14 -14 -14 -14
-20 -20 -20 -19 -19 -19 -19 -19 -19 -19 -19 -19 -19 -19 -18 -18 -18 -18 -18 -18 -18 -17 -17 -17 -17 -17 -17 -17 -16 -16 -16 -16 -16 -16 -16 -15 -15 -14 -14 -14 -14 -14
-20 -20 -20 -20 -19 -19 -19 -19 -19 -19 -19 -19 -19 -19 -18 -18 -18 -18 -18 -18 -18 -17 -17 -17 -17 -17 -17 -17 -16 -16 -16 -16 -16 -16 -15 -15 -15 -15 -14 -14 -14 -14
-20 -20 -20 -20 -19 -19 -19 -19 -19 -19 -19 -19 -19 -19 -19 -18 -18 -18 -18 -18 -17 -17 -17 -17 -17 -17 -17 -16 -16 -16 -16 -16 -16 -16 -15 -15 -15 -15 -15 -15 -15 -14
-20 -20 -20 -20 -20 -20 -20 -20 -20 -20 -20 -19 -19 -19 -19 -18 -18 -18 -18 -17 -17 -17 -17 -17 -17 -16 -16 -16 -16 -16 -16 -16 -16 -16 -15 -15 -15 -15 -15 -15 -15 -15
-20 -20 -20 -20 -20 -20 -20 -20 -20 -20 -20 -19 -19 -19 -19 -18 -18 -18 -17 -17 -17 -17 -16 -16 -16 -16 -16 -16 -16 -16 -16 -16 -16 -16 -15 -15 -15 -15 -15 -15 -16 -15
-20 -20 -20 -20 -20 -20 -20 -20 -20 -20 -20 -19 -19 -19 -19 -18 -18 -18 -17 -17 -17 -17 -16 -16 -16 -16 -16 -16 -16 -16 -16 -16 -16 -15 -15 -15 -15 -15 -15 -16 -16 -16
-21 -21 -21 -20 -20 -20 -20 -20 -20 -20 -20 -19 -19 -19 -19 -19 -19 -18 -18 -18 -18 -17 -16 -16 -16 -16 -16 -16 -16 -16 -16 -15 -15 -15 -15 -15 -15 -15 -15 -16 -16 -17
-21 -21 -21 -21 -20 -20 -20 -20 -20 -20 -20 -20 -20 -19 -19 -19 -19 -19 -19 -18 -18 -18 -17 -16 -16 -16 -16 -16 -16 -16 -15 -15 -15 -15 -15 -15 -15 -15 -16 -16 -17 -17
-21 -21 -21 -21 -20 -20 -20 -20 -20 -20 -20 -20 -20 -20 -20 -20 -19 -19 -19 -18 -18 -18 -17 -17 -16 -16 -16 -16 -16 -15 -15 -15 -14 -14 -14 -15 -15 -15 -16 -16 -17 -17
Height
5715 5715 5714 5713 5713 5713 5713 5712 5713 5713 5714 5715 5715 5716 5717 5718 5720 5721 5723 5724 5726 5728 5730 5731 5732 5734 5735 5736 5737 5740 5743 5745 5748 5750 5752 5755 5758 5760 5763 5765 5767 5770
5710 5710 5709 5708 5708 5708 5707 5707 5707 5707 5707 5708 5709 5710 5710 5711 5712 5714 5716 5717 5719 5721 5723 5724 5726 5727 5729 5730 5731 5732 5735 5738 5741 5743 5745 5748 5751 5754 5757 5760 5762 5764
5704 5704 5704 5703 5703 5702 5702 5702 5701 5701 5701 5701 5702 5703 5704 5704 5705 5707 5708 5710 5712 5713 5715 5717 5719 5721 5722 5724 5725 5726 5727 5730 5734 5736 5738 5740 5743 5747 5751 5754 5756 5758
5698 5698 5698 5698 5697 5697 5696 5696 5696 5696 5696 5695 5696 5696 5697 5698 5698 5700 5701 5703 5704 5706 5707 5709 5711 5714 5715 5717 5718 5720 5721 5723 5726 5729 5731 5733 5736 5740 5743 5747 5750 5751
5692 5692 5692 5692 5691 5691 5691 5691 5690 5690 5690 5690 5690 5690 5690 5691 5692 5693 5694 5696 5697 5699 5700 5702 5703 5706 5708 5710 5711 5713 5715 5717 5719 5722 5724 5726 5729 5732 5735 5739 5742 5745
5686 5686 5685 5685 5685 5685 5685 5685 5685 5684 5684 5684 5684 5684 5684 5684 5685 5686 5687 5688 5690 5692 5694 5695 5696 5698 5700 5702 5704 5706 5708 5710 5712 5714 5717 5719 5722 5725 5728 5731 5734 5737
5679 5679 5679 5679 5679 5679 5679 5679 5679 5678 5678 5678 5679 5678 5678 5678 5678 5679 5679 5681 5683 5685 5687 5688 5690 5691 5692 5694 5696 5699 5701 5703 5705 5707 5709 5712 5714 5717 5720 5723 5726 5730
5673 5673 5673 5672 5672 5672 5672 5672 5672 5672 5672 5672 5672 5672 5672 5672 5672 5672 5672 5673 5674 5677 5679 5681 5682 5684 5685 5687 5688 5691 5693 5696 5698 5700 5702 5704 5707 5710 5713 5715 5718 5722
5667 5667 5666 5666 5666 5666 5666 5666 5666 5665 5665 5665 5665 5666 5665 5665 5665 5665 5665 5666 5667 5668 5670 5672 5674 5676 5678 5680 5681 5683 5685 5687 5690 5693 5694 5696 5699 5702 5705 5707 5710 5714
5661 5660 5659 5659 5659 5659 5659 5659 5659 5658 5658 5658 5658 5658 5658 5658 5658 5658 5658 5659 5659 5660 5662 5664 5666 5668 5670 5672 5674 5676 5677 5679 5681 5684 5687 5689 5691 5694 5697 5700 5702 5705
5654 5653 5653 5653 5653 5653 5652 5652 5651 5651 5650 5650 5650 5651 5651 5651 5651 5651 5651 5651 5652 5653 5654 5655 5657 5659 5661 5664 5666 5668 5670 5671 5673 5676 5678 5681 5683 5686 5689 5692 5695 5697
5648 5647 5646 5646 5646 5645 5645 5645 5644 5643 5643 5642 5642 5643 5643 5643 5643 5643 5643 5644 5644 5645 5646 5647 5648 5650 5652 5655 5657 5659 5662 5664 5666 5667 5670 5672 5675 5678 5680 5684 5687 5690
5641 5640 5640 5639 5639 5638 5638 5637 5636 5635 5635 5635 5634 5635 5635 5635 5635 5635 5636 5636 5636 5637 5638 5639 5640 5641 5643 5646 5648 5650 5653 5655 5658 5659 5661 5664 5666 5669 5672 5675 5679 5682
5635 5634 5633 5632 5631 5631 5630 5629 5629 5628 5627 5627 5626 5626 5627 5627 5627 5627 5628 5628 5628 5629 5629 5630 5632 5633 5635 5637 5639 5641 5644 5646 5649 5651 5653 5655 5657 5660 5663 5666 5670 5674
5628 5627 5626 5625 5624 5623 5622 5622 5621 5621 5620 5619 5618 5618 5618 5619 5619 5619 5619 5620 5620 5620 5621 5622 5623 5625 5627 5629 5630 5632 5634 5637 5640 5642 5645 5646 5649 5651 5655 5658 5661 5665
5621 5620 5619 5618 5617 5616 5615 5615 5614 5613 5612 5611 5610 5610 5610 5610 5610 5611 5611 5611 5611 5612 5612 5613 5615 5617 5619 5620 5621 5623 5625 5627 5630 5633 5636 5638 5641 5643 5646 5649 5652 5656
5614 5613 5612 5610 5609 5609 5608 5607 5606 5605 5604 5603 5603 5602 5601 5601 5601 5602 5602 5602 5603 5603 5604 5604 5606 5608 5609 5611 5612 5614 5616 5618 5621 5625 5628 5631 5633 5635 5638 5641 5644 5647
5607 5606 5605 5603 5602 5601 5601 5599 5598 5597 5596 5595 5594 5594 5593 5593 5593 5593 5593 5593 5594 5594 5595 5595 5597 5598 5600 5601 5603 5605 5607 5609 5612 5616 5619 5623 5625 5628 5630 5632 5635 5638
5600 5599 5598 5596 5595 5594 5593 5592 5591 5589 5588 5587 5586 5585 5584 5584 5584 5584 5584 5584 5584 5585 5585 5586 5587 5589 5590 5592 5593 5595 5597 5600 5603 5606 5610 5614 5617 5620 5622 5624 5627 5630
5593 5592 5591 5590 5589 5587 5586 5585 5583 5582 5580 5579 5578 5577 5576 5576 5575 5575 5574 5574 5574 5574 5575 5576 5578 5579 5580 5581 5583 5585 5588 5590 5594 5597 5601 5606 5609 5612 5614 5617 5619 5622
5587 5586 5584 5583 5582 5580 5579 5577 5576 5574 5573 5571 5570 5569 5567 5567 5566 5565 5565 5564 5564 5563 5564 5566 5567 5569 5570 5571 5573 5576 5578 5581 5585 5589 5593 5597 5601 5604 5607 5609 5612 5614
5581 5579 5578 5576 5575 5574 5572 5570 5568 5567 5565 5563 5561 5560 5558 5557 5556 5555 5555 5554 5553 5552 5553 5555 5557 5559 5560 5562 5564 5566 5569 5572 5576 5580 5584 5588 5593 5596 5599 5602 5605 5607
5574 5573 5571 5570 5569 5567 5565 5563 5561 5559 5557 5554 5553 5551 5549 5547 5546 5545 5544 5543 5542 5542 5542 5544 5547 5549 5550 5552 5554 5556 5559 5563 5567 5571 5576 5580 5584 5588 5591 5594 5598 5601
5568 5567 5565 5564 5562 5560 5558 5556 5554 5551 5549 5546 5544 5542 5540 5538 5536 5535 5535 5534 5533 5532 5532 5534 5537 5539 5541 5543 5545 5547 5550 5554 5558 5562 5567 5571 5575 5580 5584 5587 5591 5595
5563 5561 5560 5558 5556 5554 5552 5549 5547 5544 5542 5539 5536 5534 5532 5530 5529 5527 5527 5526 5524 5523 5524 5525 5528 5530 5532 5533 5535 5537 5541 5546 5549 5553 5558 5563 5567 5572 5576 5580 5584 5588
5558 5556 5555 5553 5550 5548 5545 5543 5540 5537 5535 5532 5530 5527 5525 5523 5521 5520 5519 5518 5517 5515 5516 5517 5519 5521 5523 5525 5526 5529 5533 5537 5541 5545 5550 5554 5558 5563 5568 5573 5577 5582
Wind_Speed
43 43 44 44 44 44 45 46 46 46 47 47 48 48 48 48 48 48 49 49 49 49 50 51 51 52 53 54 55 57 59 62 64 64 64 61 59 58 55 51 48 48
43 43 43 44 44 44 44 45 46 46 47 48 48 48 48 49 49 49 49 49 50 50 50 50 51 52 53 54 54 55 57 59 62 65 66 64 63 61 58 56 54 53
43 43 43 44 44 44 44 44 44 45 46 47 48 49 49 49 49 49 49 50 50 50 51 51 51 51 52 53 54 55 55 56 59 63 65 66 66 64 61 60 59 58
43 42 43 43 44 44 43 42 43 44 45 46 46 47 48 48 49 49 49 50 50 50 51 51 52 52 52 53 54 55 55 55 56 60 63 65 67 67 65 63 62 62
43 43 43 43 43 43 43 42 42 42 43 44 44 45 46 47 48 48 49 50 50 50 51 51 52 52 53 53 54 55 55 55 55 56 60 63 66 67 67 66 65 64
43 44 44 44 44 44 43 43 43 42 42 43 44 45 46 46 47 48 49 49 50 50 50 50 51 52 53 54 54 54 54 55 56 55 57 60 63 65 67 69 69 67
44 44 44 45 45 45 44 44 43 43 43 43 44 45 46 47 47 48 49 50 50 50 50 50 50 51 52 53 54 54 54 54 55 56 57 58 60 63 65 68 69 70
43 44 44 45 45 45 45 45 44 44 44 43 44 44 46 48 49 50 50 51 51 50 51 51 51 51 51 52 53 54 54 54 54 56 57 58 58 60 63 66 67 69
44 44 45 46 46 46 46 45 45 45 45 45 45 45 46 48 50 51 52 53 53 53 52 52 52 52 52 52 53 54 54 54 54 55 57 58 59 59 60 63 65 67
46 46 47 47 47 47 47 47 47 47 47 46 46 47 47 48 50 52 53 54 55 55 55 54 54 54 54 54 54 54 54 55 55 55 55 57 59 59 59 60 62 65
48 48 49 49 49 48 48 48 48 48 48 48 48 48 48 49 50 51 53 54 55 56 56 56 56 56 57 57 56 55 55 55 55 55 55 57 59 60 61 60 60 62
48 49 49 49 49 49 48 48 49 49 50 50 50 50 50 50 50 51 52 54 56 57 58 58 57 58 58 58 58 57 56 56 56 57 56 57 58 60 61 61 61 61
47 48 48 48 48 48 48 48 49 50 51 51 51 52 51 51 51 52 52 53 55 57 59 60 59 59 59 59 59 58 58 57 57 57 58 58 58 60 61 62 62 62
46 47 48 48 48 48 48 48 49 50 51 51 52 52 52 52 52 53 53 53 54 56 58 60 61 60 60 60 59 59 59 58 57 58 58 59 59 59 61 62 63 64
47 47 48 48 49 49 49 49 50 50 51 51 52 52 52 52 53 53 53 54 54 56 58 60 62 61 61 61 60 59 59 58 58 58 58 59 59 59 60 62 63 64
48 48 48 49 49 50 49 50 50 51 51 51 52 53 53 53 53 53 53 54 54 55 56 59 61 61 61 61 61 60 60 59 59 59 58 58 59 59 60 61 63 64
49 49 50 50 50 50 50 50 50 51 51 51 51 52 53 53 53 53 54 54 54 55 55 57 59 60 61 61 61 61 60 60 60 59 58 57 58 59 59 61 63 64
49 50 50 51 51 51 51 51 50 50 50 50 51 51 52 53 53 53 53 54 54 55 55 56 57 59 60 60 61 61 61 61 61 60 58 56 56 57 58 60 63 65
49 49 49 50 51 51 51 51 51 51 51 51 51 52 52 53 53 53 53 54 54 55 55 56 56 58 59 59 60 61 61 61 61 60 58 56 54 54 55 57 61 64
48 48 48 48 49 49 50 50 50 51 51 52 52 52 53 53 53 53 54 54 54 55 56 56 57 57 58 59 60 61 61 61 61 60 58 55 53 53 53 54 57 61
46 46 46 47 47 47 47 47 48 49 50 51 53 53 53 53 53 53 53 53 54 55 56 56 56 57 58 59 59 60 61 61 61 60 59 56 53 52 52 52 55 58
45 45 45 46 46 46 46 46 47 49 51 52 53 53 54 54 54 53 53 53 54 55 55 54 54 55 57 58 59 60 61 61 61 60 59 57 54 53 53 53 54 55
44 44 44 45 45 45 46 47 49 50 51 52 53 53 54 54 53 53 51 51 51 52 53 52 52 53 56 57 58 60 60 60 60 60 59 58 56 54 53 53 53 53
43 43 43 43 43 45 46 48 49 49 50 51 51 51 51 50 49 48 46 45 46 47 48 49 49 51 53 55 57 59 60 59 59 59 59 58 57 55 53 53 52 51
41 41 41 41 43 44 46 46 47 47 47 47 47 47 46 46 45 44 41 40 41 42 43 44 46 47 49 52 54 57 57 57 58 58 57 57 56 54 53 53 52 50
38 38 39 41 43 43 43 43 43 43 43 43 44 45 45 45 45 44 41 40 41 41 40 40 42 43 45 48 51 53 54 55 55 56 55 55 54 53 52 52 51 49
Wind_Direction
271 271 270 270 270 269 269 268 267 266 265 264 262 261 260 259 257 255 252 251 250 249 248 247 246 245 244 243 243 240 238 237 238 240 241 241 240 239 238 237 237 235
270 268 268 268 268 268 267 267 266 266 265 264 263 262 261 260 259 257 255 253 251 249 248 248 247 247 246 244 244 243 240 238 237 239 240 241 240 239 237 236 237 236
270 268 266 266 266 266 266 266 265 265 264 263 263 262 261 260 259 258 257 255 254 252 250 249 248 248 247 246 245 245 244 240 238 237 239 240 240 240 238 236 236 235
271 269 267 265 265 265 266 266 265 265 264 263 263 263 262 261 260 259 258 257 255 255 253 251 249 248 248 248 247 246 246 244 240 238 238 239 239 240 240 238 236 235
271 269 268 266 266 266 267 267 266 265 264 264 263 263 262 262 261 260 259 257 256 256 255 254 252 250 249 248 248 247 246 246 244 241 239 238 238 239 239 239 238 237
271 270 269 268 268 267 267 267 267 266 265 264 263 263 263 262 261 261 260 258 257 256 255 254 254 253 251 249 248 247 247 246 246 244 241 239 238 238 238 238 239 238
272 271 270 269 268 268 267 267 267 266 266 264 263 262 262 262 261 261 261 260 258 257 256 255 253 253 252 251 249 248 247 246 246 245 244 242 240 238 237 237 237 238
274 273 272 270 269 268 268 267 267 266 265 265 263 261 260 260 260 260 260 260 259 258 257 256 254 253 252 251 250 249 247 246 245 245 245 244 242 240 238 237 236 236
276 275 274 272 271 270 270 269 268 267 265 265 264 262 260 259 258 258 258 259 259 259 258 256 255 254 253 251 251 250 249 247 246 245 245 245 244 242 240 239 237 236
277 276 275 274 273 272 271 270 269 268 266 265 264 263 262 260 258 257 256 256 257 258 258 257 255 255 254 253 251 251 250 249 247 246 245 244 244 243 241 240 238 237
276 276 275 275 274 273 272 271 270 269 268 266 265 264 263 261 260 258 257 256 255 255 256 256 255 254 254 253 252 251 250 250 249 247 245 244 244 243 242 241 239 238
276 275 275 275 274 274 273 272 270 269 268 267 266 265 264 263 262 260 259 257 255 254 254 255 254 253 253 253 252 251 250 250 249 248 246 245 244 243 242 241 240 239
276 275 275 275 275 274 274 272 271 269 268 267 267 266 265 264 263 262 261 260 258 256 254 254 254 253 252 252 252 251 250 250 250 249 248 246 244 243 243 241 240 239
278 277 277 277 276 275 274 272 271 270 269 268 268 267 267 266 265 264 263 261 260 258 255 254 253 253 252 252 252 251 250 250 249 249 248 247 245 243 242 241 239 238
280 279 278 278 277 276 275 273 272 271 270 270 270 269 269 268 267 266 265 263 261 259 257 255 253 252 252 252 252 252 251 250 249 248 247 247 246 244 242 241 240 238
280 279 278 278 277 276 275 274 273 272 272 271 271 271 270 269 268 267 266 265 263 260 258 256 254 252 252 252 252 252 251 250 248 247 246 246 246 244 242 241 240 238
280 279 278 278 277 277 276 275 274 274 273 273 272 271 271 270 269 268 267 266 264 262 259 257 254 252 252 252 252 251 250 249 248 247 245 245 245 244 243 241 240 239
279 278 278 277 277 277 276 275 275 275 274 274 273 273 272 271 270 269 268 267 265 263 261 258 255 253 252 252 251 250 249 248 247 246 244 243 243 243 242 241 240 239
278 278 277 277 277 277 276 276 275 275 275 275 275 275 274 273 272 271 269 267 265 263 261 259 256 254 252 251 250 248 247 246 245 245 243 243 243 243 241 240 239 238
278 278 277 277 277 277 277 277 276 276 277 277 277 277 276 275 274 272 270 268 266 264 262 259 257 254 252 251 249 247 246 245 244 243 243 242 243 243 241 240 239 237
280 279 278 278 278 279 280 280 279 279 280 280 280 279 279 277 275 273 271 269 267 265 262 259 257 253 251 250 248 246 245 244 242 242 242 242 242 243 242 239 238 237
282 281 280 280 281 282 283 283 283 283 283 283 283 282 281 279 277 275 272 270 268 265 262 258 255 252 250 249 247 245 244 243 242 242 242 242 242 242 241 237 235 235
284 284 282 283 283 284 284 284 285 285 285 285 284 283 282 280 278 275 273 271 268 265 261 257 253 250 249 247 246 245 244 243 242 242 242 243 243 242 239 235 232 232
286 285 284 285 285 285 285 286 286 286 286 285 284 283 281 279 277 276 274 271 267 262 258 254 251 248 247 246 245 245 244 243 242 242 242 242 243 241 237 232 229 228
286 286 286 286 286 286 287 287 287 286 285 284 282 281 280 279 279 278 275 270 265 260 255 251 247 245 244 243 243 243 243 243 243 242 242 242 241 239 234 228 225 225
287 287 287 288 288 289 288 287 286 284 283 283 282 281 281 281 281 279 276 272 268 262 256 250 245 242 240 239 240 241 242 242 242 242 241 239 237 234 228 224 223 222